User: anonymous   Login
Location: Iesi
(43.5167°N, 13.2333°E)
Time: 08:56:53
(UTC+00:00)
Language:

Okean 1-7 - Orbit

View from above orbital plane
View from above orbital plane
View from above satellite
View from above satellite

Ground track
Ground track

The orbit data is extracted from the following two-line orbital elements,

1 23317U 94066A   20294.15497546  .00000260  00000-0  25687-4 0  9999
2 23317  82.5396  49.7371 0019001 335.2344  24.7960 14.87810795407455
Epoch (UTC): 20 October 2020 03:43:09
Eccentricity: 0.0019001
inclination: 82.5396°
perigee height: 591 km
apogee height: 618 km
right ascension of ascending node: 49.7371°
argument of perigee: 335.2344°
revolutions per day: 14.87810795
mean anomaly at epoch: 24.7960°
orbit number at epoch: 40745

The dashed part of the orbit path shows where the satellite is in the earth's shadow,  

DLR